FENGYUN 1C DEB, 41006

Orbit data source: Space-Track

FENGYUN 1C DEB, 41006 is space debris in SSO originally from a launch on Mon, 10 May 1999 UTC launched from the Taiyaun Space Center, China (TSC). Fengyun 1C debris stems from the Chinese weather satellite Fengyun-1C, which was intentionally destroyed by a Chinese anti-satellite missile in 2007. This event dramatically increased the amount of space debris, with thousands of trackable fragments posing hazards to satellites and human spaceflight. The Fengyun 1C debris cloud has become a focal point in discussions about space sustainability and the need for international regulations to prevent the creation of new debris.

Loading next visibility...
Identifier
41006, 1999-025EXL
Orbit
SSO
Country
Flag of CNCN / PRC
Related business
Manufacturer
Unknown
Mission
Spacecraft
Bus & Motor
Unknown
Mass
Unknown
Launch date (UTC)
1999-05-10 (26 years ago)
Launch vehicle
Unknown
Launch site
Taiyaun Space Center, China (TSC)
Object type
Payload
Rocket body
Debris
Shape & HBR
Unknown
Radar Cross Section
Small (<0.1 m²)

Expand to show TLE details & history
Last TLE update: 1 week ago

TLE from 1 week ago
0 FENGYUN 1C DEB
1 41006U 99025EXL 25253.27963773  .00002823  00000-0  22479-2 0  9998
2 41006 102.3707  94.6652 0187285 231.5035 126.9183 13.84578394561953
Epoch: 2025-09-10T06:42Z
TLE epoch observation values (Epoch: 2025-09-10T06:42:40.699Z)
Latitude
-0.00001°
Longitude
4.43729°
Altitude
1,034.464 km
Speed
7.292 km/s
True Right ascension
06h 18m 39s
True Declination
0° 00' 00"
Sunlit
Object was in daylight at epoch
Visualization orbit readout
Latitude
Unknown
Longitude
Unknown
Altitude
Unknown
Speed
Unknown
Apparent Right ascension
Unknown
Apparent Declination
Unknown
Sunlit
N/A
Visualization observer readout
Local Sidereal Time
21:59:23
Azimuth
Unknown
Elevation
Unknown
Doppler factor
Unknown
Orbital elements
Apogee altitude
1,082.258 km
Perigee altitude
807.951 km
Semi-major axis
7,323.241 km
Eccentricity
0.01873
Inclination
102.3707°
RAAN
94.6652°
Arg. of periapsis
231.5035°
True anomaly
128.61006°
Mean anomaly
126.9183°
Eccentric anomaly
127.76657°
Mean motion
3.46328 °/min
Orbital period
103.95 mins
BSTAR
0.0022479
Loading maneuver chart data...
Computing Atmospheric mass density...
Loading historical data...
Loading historical data...
Loading historical data...
Loading historical data...
Loading historical data...
Loading historical data...
Loading historical data...

Documentation

Showing up to 5 results
|